Showing default

ICEYE-X75, 68497

Orbit data source: Space-Track

ICEYE-X75, 68497 is a payload satellite owned by ICEYE (PL) in SSO that was launched on Mon, 30 Mar 2026 UTC via an FALCON 9 launch vehicle from the Air Force Western Test Range (AFWTR). Payload-class satellites include a variety of spacecraft equipped with specific instruments for various scientific and technological missions. These include communications satellites like Starlink; space stations such as the ISS; scientific satellites like the Hubble; Earth observation satellites from companies like Planet Labs, Umbra, and HawkEye 360; GPS; miniature CubeSats for education and research; and military/defense satellites.

Loading next visibility...
Identifier
68497, 2026-067CK
Orbit
SSO
Country
Flag of PLPL / POL
Related business
Manufacturer
ICEYE
Mission
Operational spacecraft
Bus & Motor
ICEYE, Unknown motor
Mass
120 kg wet, 120 kg dry
Launch date (UTC)
2026-03-30 (3 months ago)
Launch vehicle
FALCON 9
Launch site
Air Force Western Test Range (AFWTR)
Object type
Payload
Rocket body
Debris
Shape & HBR
Unknown shape, 0.7 m
Radar Cross Section
Medium (>0.1 m² and <1 m²)

Expand to show TLE details & history
Last TLE update: 11 hours ago

TLE from 11 hours ago
0 ICEYE-X75
1 68497U 26067CK  26171.38758391  .00000758  00000-0  80055-4 0  9998
2 68497  97.7591 129.6172 0000793  22.7558 337.3696 14.92126529 12203
Epoch: 2026-06-20T09:18Z
TLE epoch observation values (Epoch: 2026-06-20T09:18:07.249Z)
Latitude
-0.00004°
Longitude
81.48407°
Altitude
593.838 km
Speed
7.563 km/s
True Right ascension
08h 38m 28s
True Declination
0° 00' 00"
Sunlit
Object was in daylight at epoch
Visualization orbit readout
Latitude
Unknown
Longitude
Unknown
Altitude
Unknown
Speed
Unknown
Apparent Right ascension
Unknown
Apparent Declination
Unknown
Sunlit
N/A
Visualization observer readout
Local Sidereal Time
07:17:01
Azimuth
Unknown
Elevation
Unknown
Doppler factor
Unknown
Orbital elements
Apogee altitude
588.877 km
Perigee altitude
587.772 km
Semi-major axis
6,966.461 km
Eccentricity
0.00008
Inclination
97.7591°
RAAN
129.6172°
Arg. of periapsis
22.7558°
True anomaly
337.3661°
Mean anomaly
337.3696°
Eccentric anomaly
337.36785°
Mean motion
3.73271 °/min
Orbital period
96.44 mins
BSTAR
0.000080055
Loading maneuver chart data...
Computing Atmospheric mass density...
Loading historical data...
Loading historical data...
Loading historical data...
Loading historical data...
Loading historical data...
Loading historical data...
Loading historical data...

Documentation

Showing up to 5 results
|